Wind_Speed
98 98 88 87 92 90 97 96 97 98 99 94 86 80 77 79 67 64 60 57 54 56 60 53 53 56 56 51 47 51 45 44 43 42 45 47 43 47 45 48 51 46 45 44
91 84 86 90 91 90 93 96 97 101 103 99 92 84 80 80 71 69 73 70 64 61 62 56 57 57 63 58 56 50 48 46 48 49 50 48 49 45 49 51 48 46 47 47
89 83 88 86 89 89 91 94 97 104 106 101 96 88 81 84 80 71 70 69 68 67 61 60 62 64 58 48 52 52 52 52 54 56 54 52 51 53 47 45 46 48 46 42
89 86 88 86 82 87 88 95 104 107 107 106 101 93 86 86 83 75 71 69 69 67 67 65 61 61 56 58 57 60 58 59 57 54 51 56 51 48 48 47 51 49 42 39
84 85 87 86 83 88 85 96 105 108 110 109 104 98 87 86 83 80 76 74 72 71 70 65 63 64 64 61 63 61 63 60 56 54 55 55 49 50 49 50 48 37 39 40
87 86 88 84 85 87 90 95 104 109 112 115 102 98 87 86 84 84 79 77 75 75 73 69 66 66 66 67 64 65 66 65 60 57 54 56 53 54 47 43 40 40 42 43
85 87 86 86 84 86 90 95 103 113 113 106 104 104 79 78 81 83 80 78 79 77 72 68 69 71 72 69 67 70 69 67 64 59 60 54 52 51 43 42 42 45 47 47
90 88 86 85 83 86 91 99 106 110 110 107 111 99 81 82 84 86 81 80 78 75 72 72 71 71 75 73 73 71 67 66 65 58 58 55 50 46 43 44 46 47 52 54
90 88 87 86 87 86 93 101 102 108 111 113 113 98 89 88 78 84 85 79 75 77 79 78 76 73 72 70 67 67 65 60 54 52 48 47 47 46 50 50 49 54 53 52
89 89 88 90 91 89 94 100 105 111 124 118 107 101 90 87 86 81 71 80 80 77 74 78 79 76 72 69 65 61 59 56 55 53 50 51 51 54 54 54 55 54 55 53
87 89 91 93 92 88 93 98 105 113 119 119 108 105 91 91 90 89 87 81 75 76 75 77 80 74 69 67 64 63 60 59 57 57 56 55 55 55 55 55 56 56 56 58
90 91 94 92 91 94 97 101 108 115 114 115 117 109 96 95 96 91 94 93 89 81 76 79 79 74 71 70 68 66 65 63 62 61 59 58 58 58 58 57 59 59 60 61
89 94 96 97 95 97 97 97 102 108 117 117 118 100 104 100 103 102 95 93 94 90 84 80 84 78 72 72 71 71 69 67 66 66 65 63 62 62 60 60 62 64 65 67
92 94 95 96 94 94 99 98 102 110 119 120 123 105 107 110 109 107 104 98 97 95 94 88 85 86 82 78 78 78 77 73 72 71 70 67 66 63 63 66 68 69 71 72
89 91 91 92 92 96 98 101 103 108 113 123 119 114 111 112 115 112 109 106 100 99 99 96 91 91 89 83 81 82 81 81 79 78 76 72 69 69 69 70 72 74 77 78
87 88 89 88 91 93 98 99 101 103 105 116 120 120 114 120 115 115 113 114 113 110 105 104 103 97 91 90 86 86 84 80 80 79 77 74 75 74 74 75 77 79 81 81
84 85 86 85 85 90 95 91 96 98 102 106 118 115 121 123 122 115 112 118 118 115 113 110 104 101 97 95 92 91 91 89 86 84 83 82 80 80 81 81 81 82 84 85
81 81 82 81 83 88 83 86 89 95 100 103 108 109 119 123 123 122 118 121 123 119 118 116 114 108 103 99 98 98 97 95 94 95 92 88 87 86 85 86 86 90 88 88
80 81 81 81 83 84 80 81 85 93 93 96 97 97 108 130 130 122 118 121 119 125 123 119 116 112 108 107 106 105 101 99 96 95 93 93 93 91 92 92 93 90 90 92
81 82 81 81 84 81 76 81 85 87 80 84 90 91 101 120 131 123 127 127 117 118 126 122 121 117 113 110 110 109 106 103 101 99 98 98 97 96 95 94 94 94 94 94
82 82 80 81 86 79 77 78 86 86 63 84 91 90 98 104 116 123 132 127 124 111 115 118 123 122 119 116 114 112 109 107 105 104 103 102 101 101 99 96 95 94 93 91
84 82 79 82 86 76 80 81 87 82 79 84 81 91 92 98 103 113 125 134 130 124 122 123 119 122 122 119 117 116 114 111 109 107 105 104 103 100 98 98 97 96 97 96
81 81 82 84 83 85 86 84 82 81 83 83 81 85 88 90 93 102 107 127 136 136 129 121 116 118 118 120 119 116 116 114 111 110 109 109 107 104 103 103 102 101 100 102
77 80 84 87 82 86 87 84 83 82 82 82 83 82 85 88 92 93 95 103 120 132 135 133 123 119 124 126 124 121 119 117 117 113 112 112 110 108 105 104 104 105 105 102
76 79 81 83 83 88 87 88 86 83 84 85 83 85 87 87 87 87 88 96 102 109 126 132 134 135 130 127 128 126 127 125 122 119 117 116 114 112 110 108 106 107 106 105
73 76 79 78 83 85 88 90 88 86 85 84 86 86 87 85 84 82 84 89 92 98 104 114 124 131 131 128 125 128 131 129 126 125 125 123 120 119 117 115 109 104 106 109
Wind_Direction
252 249 250 246 242 236 233 231 232 230 235 237 235 232 236 239 238 238 239 241 242 240 245 254 255 248 248 242 247 254 256 265 262 270 281 290 289 296 296 300 303 303 302 303
248 248 241 239 238 235 231 226 227 225 229 233 234 232 234 238 236 232 237 242 243 240 250 252 250 246 242 244 253 261 259 257 261 276 285 290 292 291 294 299 298 299 299 301
244 243 243 240 238 235 229 224 225 223 227 230 232 232 231 236 237 234 238 240 242 243 241 242 242 243 242 248 249 255 253 256 266 274 283 288 289 288 289 290 293 297 297 298
247 244 244 241 237 236 228 224 224 223 224 226 229 229 229 234 236 235 236 239 239 242 241 240 243 240 242 253 246 250 257 264 269 273 279 287 286 284 285 290 290 294 294 296
249 244 242 241 237 235 225 225 222 224 225 225 226 227 228 231 237 237 236 239 236 236 239 242 240 239 248 248 247 252 260 262 269 275 280 282 280 284 285 286 290 289 292 291
244 241 242 240 237 232 228 224 222 225 225 224 223 226 223 228 231 235 235 236 239 240 240 241 241 247 243 243 246 253 259 263 268 275 274 274 276 285 284 282 282 291 294 296
243 242 240 240 238 233 228 225 223 223 226 222 219 222 214 222 229 233 236 235 238 240 242 242 242 242 239 243 250 257 260 265 267 270 274 271 280 280 275 279 282 291 294 294
239 239 238 239 238 233 228 225 225 227 228 222 221 219 213 219 225 230 233 236 237 238 237 238 241 243 241 247 252 257 262 265 266 265 266 273 274 270 273 281 288 290 291 293
237 236 238 237 236 231 228 226 224 225 221 223 220 217 214 215 224 229 232 233 237 237 236 242 242 242 244 248 251 254 257 258 261 263 267 264 265 270 278 284 286 286 288 292
234 232 233 234 233 231 228 226 224 222 223 224 220 216 211 215 221 226 227 230 236 237 238 244 247 246 246 248 250 252 253 256 258 259 257 259 267 272 278 282 283 286 288 285
229 231 230 231 233 231 230 226 226 225 225 223 218 217 212 214 218 221 224 228 227 229 234 237 243 247 247 249 248 250 251 254 256 257 259 262 265 269 274 277 280 283 285 284
230 227 229 230 228 229 229 227 225 225 225 224 220 215 211 213 216 219 225 227 229 231 229 236 240 244 249 248 248 249 251 253 255 258 260 262 265 269 272 275 278 280 281 284
227 227 226 228 227 228 228 229 227 227 224 223 224 210 216 214 216 219 222 226 230 232 229 230 242 243 246 247 249 251 253 255 257 260 262 264 266 269 273 275 276 278 281 284
227 227 226 228 228 228 229 229 229 227 225 222 224 213 216 216 218 218 221 225 229 231 231 233 236 243 247 248 251 252 254 256 260 263 264 265 267 270 272 274 276 279 282 284
228 228 229 230 230 228 229 230 230 229 226 225 223 218 217 220 221 220 220 224 227 233 233 235 238 244 247 246 247 251 255 258 262 264 265 266 268 269 271 273 276 279 281 282
227 228 230 231 231 229 229 231 233 233 230 229 224 223 219 221 221 223 222 224 227 231 234 236 240 243 244 245 247 253 256 257 260 262 264 264 266 268 270 272 274 276 279 282
225 229 230 232 233 234 231 232 234 235 234 232 228 225 221 224 225 223 225 225 228 230 232 234 238 242 243 243 244 250 254 257 258 260 263 265 265 267 268 269 271 275 279 281
226 229 231 231 233 234 234 234 234 236 236 235 231 228 221 225 225 225 225 230 230 232 233 233 236 240 241 243 247 250 252 255 258 261 263 264 264 267 269 269 272 276 277 277
227 229 231 231 232 233 233 237 237 237 235 240 236 232 229 225 226 224 228 231 234 233 234 235 237 238 239 241 246 249 251 253 256 259 262 263 265 267 268 270 273 275 276 276
228 229 231 232 232 232 230 237 238 239 235 243 242 237 234 229 229 228 230 231 231 236 236 237 238 238 240 241 244 247 250 252 254 257 260 262 264 266 267 270 272 274 275 275
230 231 230 232 233 230 230 235 240 239 234 238 239 238 237 236 230 229 230 232 232 232 238 239 242 242 241 242 244 247 249 252 254 256 258 260 263 264 267 270 271 272 274 277
232 232 231 233 234 230 232 233 237 237 236 238 241 243 240 240 235 230 229 230 232 233 238 241 242 244 244 245 246 247 249 251 253 255 257 259 261 263 264 266 268 270 270 272
234 235 233 233 235 234 233 233 236 239 238 240 240 242 243 241 241 238 233 231 233 234 237 238 241 244 246 247 248 249 251 253 255 257 258 259 261 263 265 266 268 271 273 273
236 237 235 235 237 239 238 234 236 237 237 237 239 240 242 246 245 241 241 237 236 235 238 237 239 243 246 249 251 250 251 253 255 257 258 258 259 262 264 267 268 271 274 276
237 238 239 240 240 241 240 239 236 237 238 239 238 239 241 244 246 247 245 242 240 239 239 240 243 243 245 248 250 251 253 254 253 256 258 259 260 262 265 267 269 271 272 273
241 241 242 240 243 244 243 242 240 240 240 240 242 243 242 243 246 246 247 246 242 242 242 242 243 246 246 247 249 251 253 255 255 257 259 260 260 262 263 265 268 269 271 275
Height
10589 10599 10632 10637 10633 10644 10651 10669 10685 10697 10700 10715 10734 10749 10753 10751 10771 10778 10783 10791 10798 10802 10797 10809 10812 10816 10820 10820 10821 10823 10826 10829 10831 10830 10829 10829 10827 10826 10824 10821 10820 10818 10816 10815
10571 10596 10600 10599 10611 10623 10635 10649 10663 10672 10679 10694 10713 10733 10741 10743 10760 10767 10772 10781 10788 10792 10792 10797 10799 10806 10808 10808 10812 10815 10816 10820 10822 10821 10820 10819 10818 10816 10815 10814 10813 10811 10808 10806
10557 10574 10575 10582 10592 10605 10620 10636 10647 10653 10659 10678 10691 10717 10733 10732 10743 10758 10764 10770 10776 10780 10781 10785 10789 10794 10799 10802 10802 10806 10808 10811 10812 10812 10812 10811 10809 10806 10806 10807 10805 10802 10801 10799
10535 10555 10559 10565 10580 10588 10604 10616 10620 10630 10637 10658 10675 10703 10720 10722 10734 10748 10753 10759 10764 10766 10767 10773 10780 10784 10789 10789 10796 10799 10800 10800 10800 10803 10802 10802 10801 10798 10798 10798 10796 10794 10793 10791
10532 10536 10540 10548 10566 10568 10589 10591 10602 10609 10618 10635 10662 10682 10710 10713 10726 10734 10742 10744 10748 10750 10753 10761 10770 10775 10777 10780 10784 10787 10791 10791 10790 10791 10791 10791 10791 10789 10788 10787 10787 10786 10784 10783
10506 10517 10522 10539 10541 10553 10564 10571 10581 10590 10596 10607 10656 10667 10695 10700 10712 10717 10727 10731 10735 10738 10743 10754 10760 10764 10767 10767 10771 10774 10777 10779 10783 10782 10781 10779 10779 10780 10778 10777 10776 10776 10775 10774
10489 10500 10511 10518 10526 10538 10550 10557 10561 10567 10577 10612 10625 10640 10697 10689 10693 10701 10710 10714 10718 10726 10735 10742 10745 10749 10751 10757 10760 10762 10765 10766 10770 10772 10774 10770 10769 10769 10766 10767 10767 10767 10764 10762
10470 10480 10494 10505 10514 10522 10528 10533 10546 10557 10567 10599 10607 10640 10678 10675 10675 10685 10693 10698 10704 10712 10719 10724 10728 10735 10741 10745 10750 10751 10753 10753 10757 10760 10761 10762 10759 10759 10757 10757 10758 10756 10753 10752
10450 10464 10474 10485 10489 10499 10509 10514 10536 10543 10552 10565 10590 10638 10651 10659 10663 10669 10677 10686 10691 10694 10702 10709 10715 10721 10726 10731 10736 10739 10741 10742 10744 10745 10748 10750 10749 10749 10748 10747 10747 10745 10744 10742
10433 10441 10455 10458 10466 10479 10490 10502 10509 10519 10527 10552 10592 10613 10637 10646 10650 10657 10662 10667 10673 10680 10689 10696 10700 10706 10712 10717 10721 10725 10727 10728 10730 10733 10736 10738 10739 10738 10738 10737 10733 10734 10732 10731
10411 10420 10432 10438 10453 10468 10473 10485 10493 10499 10512 10542 10577 10602 10622 10627 10631 10637 10644 10647 10655 10662 10671 10678 10684 10690 10697 10702 10706 10710 10714 10716 10719 10719 10723 10726 10725 10725 10726 10725 10722 10720 10720 10717
10388 10400 10410 10424 10435 10442 10447 10461 10469 10478 10509 10523 10548 10584 10602 10606 10612 10617 10620 10626 10637 10647 10654 10662 10670 10676 10681 10685 10690 10695 10700 10703 10705 10706 10709 10710 10710 10710 10712 10712 10710 10709 10706 10705
10370 10377 10391 10401 10414 10422 10436 10450 10461 10470 10483 10508 10525 10596 10584 10586 10589 10594 10603 10612 10621 10633 10640 10647 10654 10659 10664 10670 10674 10679 10684 10688 10692 10694 10695 10696 10695 10697 10698 10698 10697 10695 10693 10691
10348 10362 10377 10391 10402 10412 10419 10431 10439 10446 10460 10494 10500 10565 10562 10563 10564 10575 10585 10594 10601 10610 10621 10627 10635 10644 10650 10656 10660 10663 10666 10672 10676 10679 10681 10682 10683 10685 10685 10683 10681 10680 10679 10677
10337 10353 10363 10374 10384 10395 10403 10412 10420 10428 10453 10458 10504 10534 10542 10545 10548 10558 10569 10577 10586 10592 10600 10606 10616 10624 10630 10638 10643 10646 10651 10656 10660 10663 10666 10669 10671 10670 10670 10669 10667 10665 10662 10660
10323 10337 10346 10357 10363 10373 10383 10395 10408 10425 10441 10449 10479 10500 10528 10514 10516 10536 10548 10555 10565 10572 10577 10585 10592 10601 10613 10622 10628 10632 10635 10638 10642 10646 10650 10654 10655 10655 10654 10653 10651 10649 10647 10644
10309 10322 10333 10343 10349 10354 10367 10400 10400 10411 10419 10441 10450 10490 10493 10497 10509 10521 10524 10533 10540 10552 10558 10568 10574 10583 10594 10602 10608 10614 10618 10622 10626 10630 10634 10636 10637 10637 10636 10635 10634 10633 10630 10628
10303 10311 10318 10330 10334 10344 10375 10378 10389 10393 10402 10412 10432 10461 10478 10482 10486 10495 10516 10520 10526 10532 10537 10547 10558 10567 10578 10585 10591 10594 10599 10604 10608 10612 10614 10617 10618 10618 10618 10617 10617 10615 10613 10610
10290 10296 10304 10313 10322 10339 10361 10365 10366 10367 10392 10396 10418 10438 10449 10452 10453 10484 10502 10500 10502 10507 10515 10524 10536 10546 10556 10563 10569 10573 10579 10584 10589 10593 10596 10597 10598 10598 10598 10598 10597 10596 10594 10591
10274 10281 10289 10302 10309 10327 10350 10342 10344 10351 10390 10379 10391 10409 10406 10410 10434 10484 10459 10462 10472 10482 10490 10499 10510 10524 10535 10542 10547 10551 10558 10564 10569 10573 10575 10576 10576 10576 10576 10576 10577 10576 10574 10572
10259 10267 10279 10283 10290 10320 10332 10329 10325 10336 10389 10355 10355 10372 10379 10392 10416 10446 10437 10446 10458 10467 10474 10483 10492 10502 10512 10520 10525 10532 10538 10544 10547 10550 10552 10554 10554 10553 10553 10554 10554 10552 10553 10552
10245 10253 10263 10268 10279 10312 10308 10308 10306 10327 10341 10345 10353 10355 10366 10375 10391 10407 10411 10422 10433 10445 10453 10461 10470 10478 10487 10496 10504 10510 10516 10520 10524 10527 10529 10530 10530 10529 10529 10530 10530 10531 10531 10530
10234 10240 10246 10256 10275 10283 10285 10293 10303 10313 10326 10330 10336 10337 10343 10353 10366 10377 10389 10399 10410 10422 10431 10439 10446 10456 10465 10471 10479 10487 10489 10494 10498 10501 10503 10504 10505 10505 10504 10507 10509 10508 10507 10506
10220 10224 10236 10243 10264 10263 10268 10280 10286 10295 10304 10311 10316 10321 10328 10336 10345 10358 10368 10378 10386 10395 10405 10416 10422 10431 10439 10447 10454 10461 10466 10471 10475 10476 10477 10478 10479 10481 10484 10484 10484 10484 10483 10482
10206 10212 10222 10235 10242 10241 10252 10257 10268 10277 10286 10292 10298 10304 10311 10320 10325 10334 10346 10357 10364 10372 10380 10389 10397 10408 10416 10423 10429 10434 10441 10447 10449 10452 10454 10456 10457 10458 10460 10462 10461 10460 10458 10457
10192 10199 10205 10221 10220 10227 10232 10238 10250 10259 10269 10275 10282 10287 10293 10300 10305 10313 10321 10330 10339 10348 10356 10364 10373 10380 10389 10396 10402 10409 10414 10419 10423 10426 10429 10430 10433 10435 10437 10437 10437 10435 10435 10431